Regional Weather Roundup
Issued by NWS

Home | Current Version | Previous Version | Text Only | Print | Product List | Glossary On
Versions: 1 2 3 4 5 6 7 8 9 10 11 12 13 14 15 16 17 18 19 20 21 22 23 24 25 26 27 28 29 30 31 32 33 34 35 36 37 38 39 40 41 42 43 44 45 46 47 48 49 50
378
ASUS44 KLIX 251605
RWRLA
LOUISIANA WEATHER ROUNDUP
NATIONAL WEATHER SERVICE NEW ORLEANS LA
1000 AM CST SUN JAN 25 2015

NOTE: "FAIR" INDICATES FEW OR NO CLOUDS BELOW 12,000 FEET WITH NO
      SIGNIFICANT WEATHER AND/OR OBSTRUCTIONS TO VISIBILITY.
      SKY/WX - SKY CONDITION AND SIGNIFICANT WEATHER.
      TMP - AIR TEMPERATURE.    DP   - DEWPOINT TEMPERATURE.
      RH  - RELATIVE HUMIDITY.  PRES - PRESSURE.
      HX  - HEAT INDEX.         WCI  - WIND CHILL INDEX.

*  THESE STATIONS ARE NOT NWS OR FAA STATIONS AND ARE NOT UNDER
   NWS QUALITY CONTROL.

LAZ040-048-061>063-065-066-069-251700-
SOUTHEAST LOUISIANA

CITY           SKY/WX    TMP DP  RH WIND       PRES   REMARKS
N.O. AUDUBON   NOT AVBL
N.O. INTL ARPT MOSUNNY   57  43  59 SW13      30.03F
N.O. LAKEFRONT SUNNY     58  42  55 SW13      30.04F
N.O. DOWNTOWN* FAIR      55  41  58 SW8G16    30.04F
SLIDELL        SUNNY     56  42  59 SW8G18    30.02F
BATON ROUGE    SUNNY     57  43  59 SW9       30.01S
BOOTHVILLE     SUNNY     59  48  67 W10       30.07F
BELLE CHASSE   MOSUNNY   58  41  53 W14G20    30.04F
BOGALUSA*        N/A     55  43  64 W8        30.03S
GALLIANO*      SUNNY     60  49  67 MISG      30.05F
NEW ROADS*     FAIR      55  43  63 S5        30.00F
GONZALES*      FAIR      56  44  62 SW8       30.02F
HAMMOND*       SUNNY     57  43  58 SW7       30.03S
HOUMA*         SUNNY     61  48  63 SW12      30.04F
PORT FOURCHON* SUNNY     59  48  67 SW8G14    30.10S

$$

LAZ041-044-053-054-251700-
SOUTHWEST LOUISIANA

CITY           SKY/WX    TMP DP  RH WIND       PRES   REMARKS
LAKE CHARLES   SUNNY     57  45  64 SW15      30.01F
LAFAYETTE      SUNNY     58  44  60 SW12      30.01F
PATTERSON      SUNNY     59  46  63 W12G18    30.04F
SALT POINT       N/A     54  50  86 VRB6      30.03F
NEW IBERIA     SUNNY     59  46  62 SW13      30.02F
CHENAULT AIRPK SUNNY     57  45  62 SW10      30.01F

$$

LAZ027-028-251700-
CENTRAL LOUISIANA

CITY           SKY/WX    TMP DP  RH WIND       PRES   REMARKS
FORT POLK      SUNNY     52  41  66 SW8       29.97S
ALEXANDRIA INT SUNNY     54  42  64 SW7       29.94F
ALEXANDRIA     SUNNY     55  41  59 SW9       29.95F

$$

LAZ001-002-251700-
NORTHWEST LOUISIANA

CITY           SKY/WX    TMP DP  RH WIND       PRES   REMARKS
SHREVEPORT     MOSUNNY   55  39  54 W14G23    29.92R
BARKSDALE AFB  SUNNY     53  38  57 W12G20    29.92R
DTN SHREVEPORT SUNNY     53  38  56 W12       29.92R

$$

LAZ014-016-251700-
NORTHEAST LOUISIANA

CITY           SKY/WX    TMP DP  RH WIND       PRES   REMARKS
MONROE         SUNNY     54  41  61 SW13      29.87F
TALLULAH       SUNNY     54  38  54 SW9G20    29.90F

$$




USA.gov is the U.S. government's official web portal to all federal, state and local government web resources and services.